Regional Weather Roundup
Issued by NWS

Home | Current Version | Previous Version | Text Only | Print | Product List | Glossary Off
Versions: 1 2 3 4 5 6 7 8 9 10 11 12 13 14 15 16 17 18 19 20 21 22 23 24 25 26 27 28 29 30 31 32 33 34 35 36 37 38 39 40 41 42 43 44 45 46 47 48 49 50

000
ASUS43 KMKX 252121
RWRWI

WISCONSIN REGIONAL WEATHER ROUNDUP
NATIONAL WEATHER SERVICE MILWAUKEE/SULLIVAN WI
400 PM CDT SAT MAR 25 2017

NOTE: "FAIR" INDICATES FEW OR NO CLOUDS BELOW 12,000 FEET WITH NO
SIGNIFICANT WEATHER AND/OR OBSTRUCTIONS TO VISIBILITY.

WIZ001-002-006>008-014>016-023>028-252200-
NORTHWEST WISCONSIN

CITY           SKY/WX    TMP DP  RH WIND       PRES   REMARKS
SUPERIOR ARPT  CLOUDY    34  31  88 E15G26    30.20F WCI  24
ASHLAND        CLOUDY    37  30  75 NE17G23   30.20F WCI  27
HAYWARD        CLOUDY    43  29  57 VRB7G21   30.14F
SIREN          SUNNY     45  31  57 E7        30.11F
CUMBERLAND     CLOUDY    41  32  70 E12       30.10F
RICE LAKE      CLOUDY    43  32  65 E10       30.12F
CHETEK         CLOUDY    41  32  71 NE9       30.11F
LADYSMITH      CLOUDY    41  33  72 NE10G16   30.14F
EAU CLAIRE     CLOUDY    41  33  73 E15       30.09F
MENOMONIE      CLOUDY    42  33  72 NE13G18   30.10S
NEW RICHMOND   CLOUDY    42  32  68 E14       30.10F
OSCEOLA        CLOUDY    43  33  67 NE13G18   30.12F
$$

WIZ003>005-009-010-017-018-252200-
NORTH CENTRAL WISCONSIN

CITY           SKY/WX    TMP DP  RH WIND       PRES   REMARKS
MANITOWISH WTR CLOUDY    37  32  83 E9        30.16S WCI  30
ARBOR VITAE    CLOUDY    39  32  74 E6        30.15S WCI  35
WOODRUFF       CLOUDY    39  32  74 E6        30.15S WCI  35
RHINELANDER    CLOUDY    41  32  70 E13       30.15F
EAGLE RIVER    CLOUDY    38  29  69 E9        30.16S WCI  31
LAND O LAKES   CLOUDY    37  30  78 E7        30.19F WCI  31
PHILLIPS       CLOUDY    38  31  77 E9        30.14S WCI  31
TOMAHAWK       CLOUDY    39  30  70 E7        30.14F WCI  34
MEDFORD        CLOUDY    38  32  78 E17       30.10F WCI  29
MERRILL        CLOUDY    40  32  74 E13       30.13F WCI  32
$$

WIZ029-030-035-036-043>047-252200-
CENTRAL WISCONSIN

CITY           SKY/WX    TMP DP  RH WIND       PRES   REMARKS
WAUSAU         CLOUDY    40  32  73 E14       30.11F WCI  32
MOSINEE        CLOUDY    37  34  87 E16       30.13F WCI  28
MARSHFIELD     CLOUDY    39  32  76 E10G20    30.09F WCI  32
STEVENS POINT  CLOUDY    35  32  88 E18G25    30.13S WCI  24
WAUPACA        CLOUDY    38  33  84 NE10G21   30.14F WCI  31
WAUTOMA        RAIN      36  36 100 NE13      30.11  FOG     WCI  27
WISC RAPIDS    CLOUDY    38  34  85 E16G22    30.12S WCI  29
CAMP DOUGLAS   MIX PCPN  37  36  93 E8G17     30.07F FOG     WCI  31
$$

WIZ011>013-019>022-031-037>040-048>050-252200-
NORTHEAST WISCONSIN

CITY           SKY/WX    TMP DP  RH WIND       PRES   REMARKS
ANTIGO         CLOUDY    37  32  82 E16       30.15S WCI  27
SHAWANO        CLOUDY    37  32  84 E14G22    30.19S WCI  28
OCONTO         CLOUDY    35  30  83 NE14      30.20F WCI  25
STURGEON BAY   CLOUDY    35  31  85 NE14G21   30.20S WCI  26
GREEN BAY      CLOUDY    37  35  92 NE21G28   30.17F WCI  26
MANITOWOC      LGT RAIN  38  35  89 NE10G20   30.15F WCI  31
APPLETON       DRIZZLE   36  36 100 NE18G25   30.12F WCI  25
CLINTONVILLE   CLOUDY    36  32  87 NE15G25   30.16F WCI  26
OSHKOSH        CLOUDY    37  34  89 NE14      30.11F WCI  28
$$

WIZ032>034-041-042-053>061-252200-
SOUTHWEST WISCONSIN

CITY           SKY/WX    TMP DP  RH WIND       PRES   REMARKS
LA CROSSE      LGT RAIN  40  36  86 NE7       30.06F
SPARTA         LGT RAIN  37  36  96 E13       30.07F WCI  29
VIROQUA        CLOUDY    37  37  98 E16G24    30.01F WCI  28
BOSCOBEL       CLOUDY    40  37  89 NE10      30.02F WCI  33
PRAIRIE DU CHI RAIN      39  38  97 NE9       30.00S WCI  32
PLATTEVILLE    CLOUDY    41  41 100 E21G29    29.96F
$$

WIZ056-057-062-063-064-067-068-252200-
SOUTH CENTRAL WISCONSIN

CITY           SKY/WX    TMP DP  RH WIND       PRES   REMARKS
REEDSBURG      CLOUDY    37  37 100 E16G22    30.05F FOG     WCI  27
BARABOO/DELLS  CLOUDY    37  36  96 E12G21    30.06R FOG     WCI  29
LONE ROCK      CLOUDY    40  36  86 E16G26    30.04R FOG     WCI  31
MINERAL POINT  CLOUDY    39  39 100 E18G26    29.98S WCI  30
MADISON        CLOUDY    39  37  92 E17G23    30.05S WCI  30
MIDDLETON      CLOUDY    40  38  94 E13G20    30.05R WCI  33
WATERTOWN      CLOUDY    39  39 100 E13G20    30.05F WCI  31
MONROE         CLOUDY    39  37  93 NE18      29.99S FOG     WCI  30
JANESVILLE     CLOUDY    43  41  93 NE21      30.01F
$$

WIZ051-052-058>065-066-070>072-252200-
SOUTHEAST WISCONSIN

CITY           SKY/WX    TMP DP  RH WIND       PRES   REMARKS
MILWAUKEE      LGT RAIN  39  36  89 NE14      30.08S WCI  31
WAUKESHA       DRIZZLE   36  36 100 E15G22    30.07S WCI  26
MILWAUKEE/TIMM DRIZZLE   37  36  93 NE10      30.09F WCI  30
RACINE         CLOUDY    39  36  89 NE14      30.08S WCI  31
KENOSHA        CLOUDY    39  38  96 NE15      30.05S FOG     WCI  31
FOND DU LAC    CLOUDY    39  34  82 NE15G23   30.10F WCI  31
SHEBOYGAN      LGT RAIN  38  35  89 NE20      30.10F WCI  28
WEST BEND      CLOUDY    37  37 100 E15G24    30.09R WCI  28
JUNEAU         RAIN      37  36  95 NE15      30.08S WCI  28
$$

LSZ147-162-252200-
LAKE SUPERIOR

STATION/POSITION TIME  TEMP    WIND        PRES    WAVE
                       AIR SEA DIR/SP/G            HT/PER
                 (UTC) (F)     (DEG/KT/KT) (MB)    (FT/S)
DEVILS ISLAND    2100   32      60/ 21/ 24 1025.1F
PORT WING        2040   34      40/ 20/ 23 1023.4F
SAXON HARBOR     2040   34      50/ 16/ 19 1022.4F
$$

LMZ867-665-643>646-252200-
LAKE MICHIGAN

STATION/POSITION TIME  TEMP    WIND        PRES    WAVE
                       AIR SEA DIR/SP/G            HT/PER
                 (UTC) (F)     (DEG/KT/KT) (MB)    (FT/S)
CHAMBERS ISLAND  2040   33      30/ 12/ 17 1023.4S
NORTHPORT PIER   2040   34      70/ 17/ 21 1023.7S
SISTER BAY       1835   38      90/ 13/ 21   N/A
KEWAUNEE LAKESHO 2100   36      50/ 12/ 16 1021.4
SHEBOYGAN LAKESH 2100   37      30/ 18/ 19 1020.0F
PORT WASHINGTON  2040   38      30/ 13/ 18 1020.3S
MILWAUKEE LAKESH 2100   37      20/ 14/ 18   N/A
KENOSHA   LAKESH 2100   38      20/ 15/ 16 1017.6
$$

TC  - TEMPERATURE IN CELSIUS
VSB - VISIBILITY IN STATUTE MILES
WCI - WIND CHILL INDEX
HX  - HEAT INDEX




USA.gov is the U.S. government's official web portal to all federal, state and local government web resources and services.